SCP
0 0 0 0 0 0 0 0 0 0 1 1 2 3 6 7 8 7 6 5 5 5 5 5 5 6 8 8 7 6 5 5 4 3 3 3 3 3 2 2 2 2 2 3
0 0 0 0 0 0 0 0 0 1 1 1 2 4 5 6 6 6 5 5 5 5 5 5 5 7 9 9 8 7 6 5 4 3 3 4 4 3 3 2 2 2 2 3
0 0 0 0 0 0 0 0 0 1 1 1 2 3 4 5 5 5 5 5 5 5 5 4 6 7 9 9 8 7 6 5 4 3 3 4 4 4 4 4 3 3 3 3
0 0 0 0 0 0 0 0 0 1 1 1 2 2 3 4 5 5 5 6 6 6 5 5 5 6 6 6 6 5 5 4 4 3 3 4 4 5 5 5 5 4 4 3
0 0 0 0 0 0 0 0 0 0 0 0 1 1 2 4 5 5 6 7 7 7 6 5 5 5 4 4 4 4 4 4 4 3 3 3 3 4 4 5 6 5 5 4
0 0 0 0 0 0 0 0 0 0 0 0 0 1 1 3 4 5 7 8 7 6 5 5 4 4 3 3 4 4 4 4 4 4 3 3 3 3 3 4 6 6 6 6
0 0 0 0 0 0 0 0 0 0 0 0 0 1 1 2 3 5 7 7 6 5 5 4 3 3 3 3 4 4 5 5 4 4 4 3 3 3 3 4 5 6 7 7
0 0 0 0 0 0 0 0 0 0 0 0 0 1 2 3 4 5 6 6 5 5 5 4 4 4 4 4 4 5 5 5 5 4 4 4 3 2 3 3 5 6 7 7
0 0 0 0 0 0 0 0 0 0 0 0 1 1 2 3 4 5 5 5 6 5 5 4 4 4 4 4 5 6 6 6 6 5 4 4 3 2 3 3 5 6 7 7
0 0 0 0 0 0 0 0 0 0 0 0 1 1 2 4 5 5 5 6 6 5 4 4 4 5 5 6 5 5 6 7 6 5 4 3 3 2 2 3 4 7 8 8
0 0 0 0 0 0 0 0 0 0 0 0 1 1 2 3 6 7 6 5 4 3 3 3 4 6 7 7 6 5 6 6 6 5 4 4 3 3 2 2 3 6 9 9
0 0 0 0 0 0 0 0 0 0 0 0 0 1 1 3 5 6 5 4 3 2 2 3 5 7 8 7 6 5 5 5 5 5 4 4 3 3 3 2 2 4 7 7
0 0 0 0 0 0 0 0 0 0 0 0 1 1 1 2 3 3 3 3 2 3 3 4 6 7 7 6 5 5 5 5 5 5 4 4 4 3 3 2 2 3 4 5
0 0 0 0 0 0 0 0 0 0 0 0 1 1 1 2 2 3 4 5 4 4 5 5 6 7 6 5 4 4 4 4 4 4 4 4 4 4 4 3 2 2 3 4
0 0 0 0 1 1 1 1 1 0 0 1 1 2 2 2 3 4 6 7 7 6 6 6 6 6 5 4 3 3 3 4 4 4 4 5 5 5 4 3 3 2 2 3
0 0 0 0 1 1 2 2 1 1 1 1 2 3 3 3 4 6 7 9 9 8 7 7 6 5 4 3 3 3 3 4 5 5 4 5 5 5 5 4 3 3 2 2
0 0 0 0 1 1 1 2 2 2 2 2 3 4 4 4 5 7 9 9 10 9 9 8 6 5 4 3 3 2 3 4 4 5 5 5 5 5 5 5 4 4 3 3
0 0 0 0 0 1 1 2 2 2 2 3 4 4 4 5 6 8 9 10 11 12 12 10 8 6 4 3 3 2 2 3 3 4 5 5 4 4 4 4 4 5 5 4
0 0 0 0 0 0 1 2 2 2 2 3 3 3 5 7 8 8 9 11 12 14 14 12 9 6 4 3 3 3 2 3 3 4 4 5 5 4 3 3 4 5 5 5
0 0 0 0 0 0 1 1 1 1 1 1 2 4 8 11 10 8 9 11 14 15 15 12 9 6 4 2 2 3 3 3 4 4 4 4 5 5 4 4 6 6 5 5
1 1 1 0 0 1 1 1 1 1 1 1 1 5 10 11 9 8 9 11 14 16 16 13 9 6 4 2 2 2 2 3 4 4 3 3 4 5 4 5 7 6 4 4
1 1 1 1 1 1 1 1 1 0 0 0 1 5 9 10 10 10 10 12 15 16 16 13 9 6 4 2 1 1 2 2 3 4 3 2 3 4 4 5 5 5 3 3
1 1 1 0 0 1 1 1 0 0 0 0 1 3 7 11 14 14 13 14 17 17 15 13 10 7 4 2 2 1 1 2 2 2 2 2 3 4 4 4 4 4 3 3
0 0 0 0 0 0 0 0 0 0 0 0 0 1 5 12 17 15 14 15 17 17 15 13 10 7 4 3 2 2 2 1 1 1 1 2 2 3 5 5 4 4 3 3
0 0 0 0 0 0 0 0 0 0 0 1 0 1 4 10 15 15 15 16 17 15 14 12 9 7 5 3 3 2 2 2 1 1 1 2 2 3 4 4 3 3 3 3
0 0 0 0 0 0 0 0 0 0 1 1 1 1 4 8 13 15 17 18 16 14 12 11 9 7 5 4 3 2 2 1 1 1 1 2 3 3 3 2 2 1 2 2
Wind_Speed
2 2 5 9 8 7 4 3 6 7 4 2 2 2 3 5 7 7 6 7 7 8 8 8 9 9 8 6 6 6 6 4 4 3 3 3 2 1 1 2 3 3 3 3
3 6 13 9 6 5 4 4 5 6 3 1 3 1 3 5 7 9 10 9 7 7 7 8 8 7 8 7 6 6 6 5 4 3 3 3 2 1 1 1 2 2 3 3
8 11 8 6 6 6 5 5 5 4 3 4 5 3 2 1 2 5 7 8 8 10 11 10 9 9 8 7 7 7 6 5 4 4 3 3 2 2 2 1 1 1 2 2
7 9 6 5 6 5 5 6 5 3 2 2 3 1 4 1 1 3 5 6 7 8 9 10 10 9 9 9 8 7 7 6 5 5 4 5 3 2 2 1 1 1 2 2
6 5 4 5 7 5 6 5 4 3 3 1 2 3 5 1 2 4 4 6 8 9 10 10 10 10 9 9 8 6 6 5 5 5 5 5 3 2 1 1 1 1 0 1
7 6 4 6 5 4 2 3 4 4 5 1 3 3 4 3 6 5 4 4 5 7 9 8 8 7 6 6 6 6 7 5 5 5 5 5 5 4 3 2 2 1 1 0
7 7 4 0 2 4 5 6 4 5 4 3 3 2 4 5 5 6 6 4 4 5 7 6 6 6 6 7 6 6 6 5 5 5 5 5 5 5 5 4 3 2 1 1
2 6 4 1 2 3 2 8 7 4 4 3 2 2 4 3 1 4 5 5 5 5 5 6 6 6 7 7 7 6 6 6 5 5 4 4 5 4 3 4 3 3 3 2
3 5 5 2 1 3 1 2 7 7 1 0 2 1 3 4 3 4 4 4 4 4 5 5 5 5 5 6 7 8 7 6 6 6 5 4 4 4 4 4 3 3 2 2
4 2 5 4 5 4 3 3 6 5 3 1 2 1 2 1 0 2 3 3 2 2 4 4 4 4 4 4 5 6 7 6 5 5 5 5 4 4 4 3 3 3 3 2
3 2 5 5 2 2 3 3 4 4 5 5 2 4 4 5 3 2 1 1 2 3 3 3 4 4 4 4 4 4 5 5 4 4 4 3 3 3 3 3 3 3 2 3
1 5 1 4 4 1 3 2 4 4 1 4 4 4 2 3 2 3 2 1 2 2 2 3 4 5 4 4 4 4 4 4 4 4 3 3 3 3 3 3 3 3 3 3
3 6 3 7 8 6 3 2 2 4 4 3 4 4 1 3 2 2 3 3 4 3 3 4 4 4 4 4 3 3 3 3 4 3 3 3 3 3 3 3 2 3 3 3
5 4 5 6 5 2 2 4 2 4 3 2 4 4 2 1 2 1 2 3 4 4 4 4 4 3 4 3 4 3 2 2 3 3 3 3 4 4 4 3 3 3 3 3
5 3 1 2 2 1 2 3 2 1 4 5 4 5 5 4 4 3 2 4 5 4 3 3 3 2 3 2 2 2 2 2 2 3 3 3 3 3 3 2 2 3 3 3
4 2 2 3 3 3 4 4 2 1 1 3 4 1 2 2 3 3 3 4 4 3 3 3 2 3 3 2 2 2 1 1 1 2 2 2 2 3 3 3 3 2 2 2
1 3 2 2 3 4 4 4 1 2 2 3 3 3 2 4 3 3 3 4 3 3 2 2 2 3 2 2 2 2 2 1 2 1 1 1 2 2 3 3 3 3 3 3
5 4 3 1 3 0 4 3 3 5 5 4 4 3 3 4 3 3 4 4 2 2 2 1 1 1 1 1 1 1 1 1 1 1 1 2 2 2 2 2 3 3 3 3
5 6 4 3 2 2 4 4 2 2 3 4 5 4 3 3 4 3 2 3 3 2 2 1 0 1 1 1 1 1 0 1 1 1 2 2 2 2 2 2 3 3 3 3
5 5 5 3 3 2 4 5 2 5 2 3 4 3 3 3 3 1 0 2 3 2 1 1 1 1 1 1 1 2 0 0 1 2 2 1 1 2 3 3 3 3 3 4
4 4 3 3 2 3 4 4 4 3 4 2 1 3 3 2 3 3 1 2 2 2 1 2 2 2 1 1 1 1 0 1 2 1 1 1 2 2 3 3 2 2 3 3
3 2 2 3 2 5 4 2 3 4 3 1 2 2 3 2 1 1 1 1 1 1 2 2 2 2 2 1 1 1 1 2 1 0 1 2 2 2 1 1 1 2 2 2
2 4 4 4 5 5 1 3 3 3 3 2 2 2 3 2 1 1 1 1 1 0 1 1 2 2 2 2 1 1 2 2 1 0 1 1 1 1 1 1 1 1 2 2
2 2 3 2 1 1 1 2 2 2 3 2 3 3 3 2 1 1 1 1 0 1 1 1 2 2 1 2 1 2 2 1 0 1 1 1 1 1 0 0 1 1 2 2
2 1 2 1 1 1 2 1 2 2 3 4 3 3 3 2 1 0 0 0 1 0 1 1 1 1 1 1 1 2 1 1 0 0 1 1 1 1 1 0 0 1 2 4
1 3 4 4 5 3 4 3 1 3 3 3 3 2 1 2 1 0 1 1 1 1 0 1 1 1 1 1 1 2 1 1 1 0 1 1 0 1 1 1 2 4 2 2
Wind_Direction
267 95 235 233 212 208 229 271 285 279 272 78 141 156 169 157 144 140 146 156 156 162 158 148 140 140 135 136 135 135 131 140 132 126 124 119 121 124 113 127 138 134 126 120
351 256 238 236 238 225 242 263 279 288 296 97 102 125 182 149 167 161 161 159 156 147 140 142 140 142 148 153 147 140 144 145 146 148 147 142 141 142 146 129 129 140 137 137
214 245 245 232 244 241 240 218 229 245 345 36 91 8 315 191 144 147 157 161 159 155 157 153 151 159 161 163 161 157 153 145 145 139 121 104 78 63 61 65 119 152 146 140
239 252 255 234 239 215 247 226 203 199 88 285 120 164 288 191 262 179 169 168 167 163 159 161 162 166 170 174 167 158 155 151 147 141 140 138 138 153 186 176 165 137 139 137
257 253 243 239 241 213 223 219 194 174 137 40 11 116 272 168 239 224 194 174 170 167 164 168 172 175 173 169 166 159 154 155 155 153 155 150 149 166 151 127 117 112 119 152
256 263 222 227 243 203 182 41 34 47 75 46 263 152 258 235 217 205 189 171 170 167 160 165 169 163 163 162 161 158 155 160 164 158 155 159 163 164 148 150 163 196 228 231
311 306 293 250 13 349 66 77 32 9 22 251 264 133 238 247 217 169 165 151 143 153 151 154 149 153 163 162 164 165 161 167 172 164 166 171 174 171 172 175 185 191 198 212
270 294 298 330 175 201 178 131 152 187 213 264 328 194 252 271 206 140 140 135 131 146 152 157 161 166 168 167 166 169 172 177 178 175 178 178 179 178 183 185 185 194 201 207
184 269 302 316 304 146 129 161 172 143 163 128 286 283 316 352 42 82 91 99 123 142 152 155 158 162 162 164 170 175 176 176 181 182 177 178 182 182 184 186 184 188 195 196
158 258 306 313 20 11 126 139 79 97 130 204 298 270 238 293 31 49 75 101 106 126 140 145 153 157 162 161 166 166 167 176 175 177 184 186 191 190 187 177 175 179 186 181
112 123 321 7 32 330 15 39 85 112 144 149 196 265 218 190 180 150 142 133 140 118 143 144 142 145 142 128 135 148 158 160 166 177 182 181 187 185 177 174 178 176 173 169
87 117 303 283 275 196 115 126 122 131 225 152 154 254 268 170 141 123 131 131 116 114 139 146 138 133 125 120 125 138 146 155 172 172 165 169 170 164 167 182 187 174 172 174
85 98 52 343 341 1 37 23 107 130 121 141 150 242 307 110 102 130 142 137 127 115 106 118 118 122 120 115 114 123 137 161 170 160 158 163 169 170 179 184 178 167 166 167
95 97 147 192 234 270 317 332 17 96 126 180 190 197 260 166 149 149 129 122 111 106 107 105 105 105 106 120 126 124 122 158 166 157 165 181 190 189 191 182 171 173 175 172
80 96 143 227 272 359 345 343 8 73 176 174 201 184 208 205 187 169 131 112 99 95 95 100 112 108 102 101 105 121 137 161 149 142 163 198 199 184 177 172 177 182 186 186
77 112 49 355 5 18 5 351 8 10 124 144 128 165 225 155 120 108 103 106 105 112 121 118 118 120 130 140 144 144 143 167 142 153 168 191 181 173 182 188 187 184 189 189
95 113 90 307 334 24 355 330 36 70 27 139 155 207 137 110 113 127 122 110 109 110 117 128 139 153 167 172 166 176 188 174 146 161 169 161 174 189 198 196 187 194 201 195
142 119 125 129 45 135 255 302 63 75 46 57 85 96 117 140 154 137 122 115 110 90 90 97 159 189 201 202 192 197 187 171 156 154 181 178 166 195 213 202 203 209 202 198
144 134 118 113 122 266 298 323 347 100 33 39 86 74 74 103 70 38 80 111 113 90 106 121 190 221 208 210 197 152 184 144 163 197 209 194 184 212 228 222 224 215 195 196
72 97 111 116 133 217 267 307 331 86 31 355 81 95 91 76 78 271 325 90 87 74 72 68 42 35 20 307 103 95 77 141 228 235 233 213 198 218 229 228 220 208 190 195
47 51 102 138 169 249 275 310 39 95 232 274 112 123 114 128 186 216 181 96 107 91 62 57 62 45 347 340 84 86 25 262 254 246 257 238 232 220 215 212 202 188 189 181
143 134 160 140 161 240 287 45 119 208 220 171 136 131 126 136 110 128 140 126 107 71 60 69 64 29 345 352 67 50 299 283 294 115 247 263 250 238 214 178 178 177 170 172
145 178 173 170 203 234 229 145 181 164 138 126 122 133 129 126 128 115 105 112 113 98 75 73 82 47 351 354 30 297 274 289 307 324 260 232 250 259 192 158 167 193 180 174
327 82 94 87 278 247 116 108 99 111 122 132 124 116 103 105 134 127 131 128 79 42 59 74 78 58 12 342 314 260 258 254 234 238 242 234 227 244 138 140 169 189 196 187
237 84 84 117 248 8 353 33 95 93 98 92 81 90 114 119 121 136 156 175 127 87 28 61 84 73 292 299 310 291 268 128 112 272 280 259 215 196 158 58 348 228 231 212
236 163 160 212 223 188 233 241 157 118 112 114 102 66 86 126 142 113 131 143 141 155 143 34 4 349 312 343 339 334 347 106 117 319 295 277 236 200 155 130 16 6 336 250